{"data":{"norad_id":54104,"epoch":"2026-05-24T21:09:22.618656Z","epoch_age_seconds":78524,"freshness":"FRESH","line1":"1 54104U 22136BF  26144.88151179  .00000082  00000+0  23251-4 0  9991","line2":"2 54104  53.2160 316.6359 0001282  92.8541 267.2598 15.08838772198981","mean_motion":15.08838772,"eccentricity":0.0001282,"inclination_deg":53.216,"raan_deg":316.6359,"arg_perigee_deg":92.8541,"mean_anomaly_deg":267.2598,"bstar":2.3251e-5,"rev_number":19898,"period_min":95.437632351616,"perigee_km":538.86026972432,"apogee_km":540.63401521845,"semimajor_km":6917.8841424714,"source":"CELESTRAK","updated_at":"2026-05-25T13:38:17.658490Z"}}